Terminal Aerodrome Forecast
Issued by NWS Lake Charles, LA

Home | Current Version | Previous Version | Text Only | Print | Product List | Glossary On
Versions: 1 2 3 4 5 6 7 8 9 10 11 12 13 14 15 16 17 18 19
000
FTUS44 KLCH 170500
TAFAEX
TAF
KAEX 170520Z 1706/1806 VRB03KT P6SM SCT020 BKN200
      TEMPO 1709/1713 4SM BR
     FM171800 12006KT P6SM VCTS SCT050CB BKN120
     FM180200 VRB03KT P6SM BKN250=

USA.gov is the U.S. government's official web portal to all federal, state and local government web resources and services.